Weather History for KDVN - October, 2013

Change the Weather History Date:

Tuesday, October 1, 2013

  Actual Average Record
Temperature  
Mean Temperature 70 °F 57 °F  
Max Temperature 83 °F 69 °F 88 °F (1971)
Min Temperature 57 °F 45 °F 25 °F (2003)
Degree Days  
Heating Degree Days 0 9  
Month to date heating degree days 0 9  
Since 1 July heating degree days 99 144  
Cooling Degree Days 5 1  
Month to date cooling degree days 5 1  
Year to date cooling degree days 916 775  
Growing Degree Days 20 (Base 50)    
Moisture  
Dew Point 59 °F    
Average Humidity 74    
Maximum Humidity 100    
Minimum Humidity 47    
Precipitation  
Precipitation 0.00 in 0.11 in 0.70 in (1977)
Month to date precipitation 0.00 0.11  
Year to date precipitation 30.01 28.99  
Snow  
Snow 0.00 in - - ()
Month to date snowfall 0.0  
Since 1 July snowfall 0.0  
Since 1 September snowfall 0.0  
Snow Depth 0.00 in    
Sea Level Pressure  
Sea Level Pressure 29.91 in    
Wind  
Wind Speed 9 mph (SSW)    
Max Wind Speed 18 mph    
Max Gust Speed 26 mph    
Visibility 9 miles    
Events      
T = Trace of Precipitation, MM = Missing Value Source: NWS Daily Summary

Daily Weather History Graph

Daily Weather History Graph

Search for Another Location

Airport or City:

Trip Planner

Search our weather history database for the weather conditions in past years. The results will help you decide how hot, cold, wet, or windy it might be!

Date:

Astronomy

Oct. 01, 2013 Rise Set
Actual Time 6:59 AM CDT 6:43 PM CDT
Civil Twilight 6:31 AM CDT 7:11 PM CDT
Nautical Twilight 5:59 AM CDT 7:43 PM CDT
Astronomical Twilight 5:27 AM CDT 8:15 PM CDT
Moon 3:31 AM CDT (10/1) 4:49 PM CDT (10/1)
Length of Visible Light 12h 39m
Length of Day
11h 44m
Waning Crescent, 12% of the Moon is Illuminated
Oct 1
Waning Crescent
Oct 4
New
Oct 11
First Quarter
Oct 18
Full
Oct 26
Last Quarter

Hourly Weather History & Observations

Time (CDT) Temp. Heat Index Dew Point Humidity Pressure Visibility Wind Dir Wind Speed Gust Speed Precip Events Conditions
12:52 AM 62.1 °F - 55.9 °F 80% 29.88 in 10.0 mi SSW 8.1 mph - N/A   Clear
1:52 AM 60.1 °F - 55.9 °F 86% 29.88 in 9.0 mi SSW 5.8 mph - N/A   Clear
2:52 AM 59.0 °F - 55.9 °F 90% 29.89 in 10.0 mi South 6.9 mph - N/A   Clear
3:52 AM 59.0 °F - 55.9 °F 90% 29.88 in 10.0 mi South 8.1 mph - N/A   Clear
4:52 AM 59.0 °F - 55.9 °F 90% 29.89 in 10.0 mi South 8.1 mph - N/A   Clear
5:52 AM 59.0 °F - 57.0 °F 93% 29.89 in 10.0 mi South 9.2 mph - N/A   Clear
6:52 AM 59.0 °F - 57.0 °F 93% 29.91 in 9.0 mi South 9.2 mph - N/A   Clear
7:30 AM 60.8 °F - 57.2 °F 88% 29.93 in 6.0 mi South 8.1 mph - N/A   Partly Cloudy
7:43 AM 60.8 °F - 59.0 °F 94% 29.94 in 6.0 mi South 11.5 mph - N/A   Mostly Cloudy
7:52 AM 61.0 °F - 60.1 °F 97% 29.93 in 5.0 mi South 11.5 mph 18.4 mph N/A   Overcast
8:52 AM 64.0 °F - 61.0 °F 90% 29.94 in 5.0 mi SSW 10.4 mph 19.6 mph N/A   Overcast
9:52 AM 66.9 °F - 62.1 °F 84% 29.94 in 6.0 mi SSW 11.5 mph - N/A   Haze
10:12 AM 69.8 °F - 62.6 °F 78% 29.94 in 7.0 mi SSW 13.8 mph - N/A   Scattered Clouds
10:52 AM 71.1 °F - 62.1 °F 73% 29.93 in 9.0 mi South 13.8 mph - N/A   Clear
11:52 AM 77.0 °F - 60.1 °F 56% 29.92 in 10.0 mi SSW 13.8 mph 19.6 mph N/A   Clear
12:52 PM 80.1 °F 81.1 °F 61.0 °F 52% 29.90 in 10.0 mi SSW 18.4 mph 25.3 mph N/A   Clear
1:52 PM 82.0 °F 82.7 °F 61.0 °F 49% 29.88 in 10.0 mi SW 12.7 mph 20.7 mph N/A   Clear
2:52 PM 82.9 °F 83.3 °F 61.0 °F 47% 29.88 in 10.0 mi SW 11.5 mph 19.6 mph N/A   Clear
3:52 PM 82.9 °F 83.2 °F 60.1 °F 46% 29.88 in 10.0 mi WSW 15.0 mph 26.5 mph N/A   Clear
4:52 PM 81.0 °F 81.6 °F 60.1 °F 49% 29.89 in 10.0 mi SW 11.5 mph - N/A   Clear
5:52 PM 81.0 °F 81.6 °F 60.1 °F 49% 29.90 in 10.0 mi SW 5.8 mph - N/A   Clear
6:52 PM 75.9 °F - 61.0 °F 60% 29.91 in 10.0 mi SSW 5.8 mph - N/A   Clear
7:52 PM 75.0 °F - 60.1 °F 60% 29.93 in 10.0 mi West 4.6 mph - N/A   Scattered Clouds
8:52 PM 64.0 °F - 59.0 °F 84% 29.94 in 10.0 mi SSW 3.5 mph - N/A   Clear
9:52 PM 61.0 °F - 57.0 °F 87% 29.96 in 10.0 mi Calm Calm - N/A   Clear
10:52 PM 59.0 °F - 55.9 °F 90% 29.97 in 9.0 mi Calm Calm - N/A   Clear
11:52 PM 63.0 °F - 59.0 °F 87% 29.97 in 8.0 mi NW 4.6 mph - N/A   Clear